Regional Weather Roundup
Issued by NWS Upton, NY

Current Version | Previous Version | Graphics & Text | Print | Product List | Glossary Off
Versions: 1 2 3 4 5 6 7 8 9 10 11 12 13 14 15 16 17 18 19 20 21 22 23 24 25 26 27 28 29 30 31 32 33 34 35 36 37 38 39 40 41 42 43 44 45 46 47 48 49 50
412 ASUS41 KOKX 110804 RWROKX REGIONAL WEATHER ROUNDUP NATIONAL WEATHER SERVICE NEW YORK NY 300 AM EST THU FEB 11 2016 NOTE: "FAIR" INDICATES FEW OR NO CLOUDS BELOW 12,000 FEET WITH NO SIGNIFICANT WEATHER AND/OR OBSTRUCTIONS TO VISIBILITY. NYZ071-072-176-178-NJZ106-104-110900- NEW YORK CITY METRO AREA CITY SKY/WX TMP DP RH WIND PRES REMARKS CENTRAL PARK CLOUDY 26 17 68 NW8G18 29.79R HAZE WCI 18 LAGUARDIA APRT SNOW 26 20 77 NW23G31 29.78R VSB 1/2 WCI 11 KENNEDY INTL LGT SNOW 28 19 69 W16 29.79R WCI 16 NEWARK/LIBERTY CLOUDY 26 17 68 W23G29 29.80R WCI 11 BRNX BOT. GARD N/A 27 19 74 W13 29.77S WCI 16 TETERBORO CLOUDY 25 16 68 NW10 29.78R WCI 15 $$ NYZ177-179-078>081-110900- LONG ISLAND NEW YORK CITY SKY/WX TMP DP RH WIND PRES REMARKS FARMINGDALE LGT SNOW 28 20 71 W16 29.75R WCI 16 ISLIP CLOUDY 29 18 63 W18G25 29.71R WCI 16 SHIRLEY CLOUDY 30 20 66 W10 29.72S WCI 21 RIVERHEAD N/A 32 21 64 NW8 29.68S WCI 25 WESTHAMPTON CLOUDY 27 19 72 W9 29.72S WCI 18 EAST HAMPTON CLOUDY 26 21 80 W3 29.69S MONTAUK POINT N/A 32 20 61 NW7 29.69S WCI 26 $$ NYZ052-065-067-110900- HUDSON VALLEY CITY SKY/WX TMP DP RH WIND PRES REMARKS WHITE PLAINS CLOUDY 25 14 63 NW16G24 29.72R FOG WCI 12 NEWBURGH CLOUDY 23 10 58 W17G29 29.74S WCI 9 MONTGOMERY MOCLDY 24 6 46 W15G21 29.74S WCI 11 POUGHKEEPSIE CLOUDY 27 10 49 W8 29.74R WCI 19 ALBANY FLURRIES 25 11 55 W12 29.72R WCI 14 $$ NJZ001-105-106-008-010-013-015-019>022-104-110900- NEW JERSEY CITY SKY/WX TMP DP RH WIND PRES REMARKS NEWARK/LIBERTY CLOUDY 26 17 68 W23G29 29.80R WCI 11 TETERBORO CLOUDY 25 16 68 NW10 29.78R WCI 15 CALDWELL CLOUDY 25 7 46 NW15G24 29.79R WCI 13 MORRISTOWN CLOUDY 25 12 58 W8G18 29.79S WCI 16 SOMERVILLE CLOUDY 26 8 46 W9G21 29.80S WCI 17 SUSSEX CLOUDY 22 4 46 VRB5 29.77R WCI 16 ANDOVER N/A 22 4 46 VRB6 29.78R WCI 14 TRENTON CLOUDY 24 14 65 W10 29.82S WCI 14 MILLVILLE CLEAR 24 12 60 W12 29.89R WCI 13 ATLANTIC CITY PTCLDY 25 11 55 W16G26 29.86R WCI 12 WRIGHTSTOWN CLOUDY 24 18 77 W13G23 29.81S WCI 13 TOMS RIVER CLOUDY 25 14 63 NW20 29.83S WCI 11 BELMAR CLOUDY 25 12 58 NW13G22 29.80S WCI 13 $$ PAZ047>061-062-071-110900- EASTERN PENNSYLVANIA CITY SKY/WX TMP DP RH WIND PRES REMARKS PHILADELPHIA MOCLDY 25 10 53 NW13 29.89R WCI 14 ALLENTOWN CLOUDY 23 7 50 NW13 29.84R WCI 11 SCRANTON PTCLDY 17 0 47 W12 29.79R WCI 4 $$ CTZ002-004>006-009-010-012-RIZ004-006-007-MAZ004-011-015-110900- SOUTHERN NEW ENGLAND IN CT CITY SKY/WX TMP DP RH WIND PRES REMARKS BRADLEY INTL CLOUDY 25 15 66 W3 29.68R HARTFORD CLOUDY 30 16 56 NW6 29.70S WCI 24 DANBURY CLOUDY 25 13 60 W9G20 29.72R WCI 15 WTRBRY/OXFORD CLOUDY 27 14 59 W6 29.68S WCI 20 BRIDGEPORT CLOUDY 30 21 69 W14 29.71S WCI 19 MERIDEN FLURRIES 28 20 71 W8 29.70R WCI 20 NEW HAVEN CLOUDY 31 20 63 NW6 29.70S WCI 25 CHESTER FLURRIES 28 19 69 NW3 29.68S GROTON CLOUDY 23 21 92 NW5 29.69S WCI 17 WILLIMANTIC CLOUDY 26 15 63 NW3 29.68R IN RI CITY SKY/WX TMP DP RH WIND PRES REMARKS PROVIDENCE CLEAR 25 17 72 W6 29.67S WCI 18 BLOCK ISLAND CLEAR 30 19 64 NW8 29.67S WCI 23 WESTERLY CLEAR 25 19 78 CALM 29.69S IN MA CITY SKY/WX TMP DP RH WIND PRES REMARKS BOSTON CLEAR 29 18 63 W10 29.65S WCI 20 WORCESTER CLEAR 20 13 74 W10 29.60S WCI 9 WESTFIELD CLOUDY 23 12 62 N7 29.67S WCI 15 PROVINCETOWN CLEAR 32 23 69 W18 29.64S WCI 20 NANTUCKET PTCLDY 33 22 63 NW12 29.65R WCI 24 $$ ANZ330-335-338-340-345-350-353-355-110900- COASTAL MARINE OBSERVATIONS STATION/POSITION TIME SKY/WX TEMP WIND PRES VSBY WAVE AIR SEA DIR/SP/G HT/PER (UTC) (F) (DEG/KT/KT) (MB) (MI) (FT/S) NY HARB ENTRANCE 0650 30 43 280/ 25/ 29 1006.8 4/ 4 4S FIRE IS NOT AVBL 20S FIRE ISLAND 0650 33 44 290/ 23/ 29 1006.4 6/ 6 GREAT SOUTH BAY NOT AVBL 23SW MTP 0750 35 46 290/ 17/ 23 1005.1 7/ 9 HUDSON CANYON 0650 36 48 1006.9 7/ 7 KINGS POINT 0700 28 38 320/ 16/ 20 1007.1 EXECUTION ROCKS NOT AVBL CENTRAL LI SOUND 0700 34 290/ 16/ 19 N/A 3/ 5 EASTERN LI SOUND 0700 34 42 300/ 10/ 14 N/A ROBBINS REEF 0700 27 290/ 23/ 26 1007.3 $$ >>>>>>>>>>>>>>>>>>>>>>>>>>>> KEY <<<<<<<<<<<<<<<<<<<<<<<<<<< > < > SKY/WX - SKY CONDITION/PRESENT WEATHER < > TMP - TEMPERATURE IN FAHRENHEIT < > DP - DEWPOINT IN FAHRENHEIT < > RH - RELATIVE HUMIDITY IN PERCENT < > WIND - DIRECTION AND SPEED IN MPH < > PRES - MEAN SEA LEVEL PRESSURE IN INCHES OF HG < > WCI - WIND CHILL INDEX < > VSB - VISIBILITY IN MILES < > HX - HEAT INDEX < > TC - TEMPERATURE IN CELSIUS < > VRB - VARIABLE WIND DIRECTION < > < >>>>>>>>>>>>>>>>>>>>>>>>>>>> KEY <<<<<<<<<<<<<<<<<<<<<<<<<<<

USA.gov is the U.S. government's official web portal to all federal, state and local government web resources and services.